Regional Weather Roundup
Issued by NWS

Home | Current Version | Previous Version | Text Only | Print | Product List | Glossary On
Versions: 1 2 3 4 5 6 7 8 9 10 11 12 13 14 15 16 17 18 19 20 21 22 23 24 25 26 27 28 29 30 31 32 33 34 35 36 37 38 39 40 41 42 43 44 45 46 47 48 49 50
000
ASUS43 KMKX 281600
RWRWI

WISCONSIN REGIONAL WEATHER ROUNDUP
NATIONAL WEATHER SERVICE MILWAUKEE/SULLIVAN WI
1100 AM CDT THU AUG 28 2014

NOTE: "FAIR" INDICATES FEW OR NO CLOUDS BELOW 12,000 FEET WITH NO
SIGNIFICANT WEATHER AND/OR OBSTRUCTIONS TO VISIBILITY.

WIZ001-002-006>008-014>016-023>028-281700-
NORTHWEST WISCONSIN

CITY           SKY/WX    TMP DP  RH WIND       PRES   REMARKS
SUPERIOR ARPT  SUNNY     66  55  66 CALM      30.11S
ASHLAND        SUNNY     69  53  56 VRB5      30.13F
HAYWARD        MOSUNNY   67  51  56 S8        30.13F
SIREN          CLOUDY    66  54  65 SE6       30.11S
RICE LAKE      PTSUNNY   66  53  63 SE6       30.14S
LADYSMITH      PTSUNNY   68  53  59 SE5       30.15S
EAU CLAIRE     NOT AVBL
MENOMONIE      PTSUNNY   67  55  65 E6        30.12S
NEW RICHMOND   PTSUNNY   69  57  65 SE7       30.11S
OSCEOLA        PTSUNNY   69  58  68 SE9       30.13S
$$

WIZ003>005-009-010-017-018-281700-
NORTH CENTRAL WISCONSIN

CITY           SKY/WX    TMP DP  RH WIND       PRES   REMARKS
WOODRUFF       SUNNY     66  47  51 S7        30.16S
RHINELANDER    SUNNY     65  48  54 SE8       30.17F
EAGLE RIVER    SUNNY     66  46  48 SE6       30.16F
LAND O LAKES   SUNNY     66  47  50 SE3       30.17F
PHILLIPS       CLOUDY    66  49  54 SE8       30.15S
TOMAHAWK       SUNNY     67  52  58 SE5       30.16S
MEDFORD        SUNNY     66  54  66 SE7       30.15S
MERRILL        CLOUDY    58  55  91 SE7       30.17S
$$

WIZ029-030-035-036-043>047-281700-
CENTRAL WISCONSIN

CITY           SKY/WX    TMP DP  RH WIND       PRES   REMARKS
WAUSAU         CLOUDY    60  57  89 E6        30.15S
MOSINEE        CLOUDY    59  59 100 SE6       30.17S FOG
MARSHFIELD     CLOUDY    63  59  87 SE7       30.15S
STEVENS POINT  CLOUDY    62  57  84 CALM      30.16S
WAUPACA        CLOUDY    69  59  70 S7        30.16S
WAUTOMA        NOT AVBL
WISC RAPIDS    PTSUNNY   68  60  75 SW3       30.16S
CAMP DOUGLAS   NOT AVBL
$$

WIZ011>013-019>022-031-037>040-048>050-281700-
NORTHEAST WISCONSIN

CITY           SKY/WX    TMP DP  RH WIND       PRES   REMARKS
ANTIGO         CLOUDY    61  56  83 SE6       30.18S
STURGEON BAY   CLOUDY    64  54  68 S9        30.18S
GREEN BAY      CLOUDY    67  58  72 S3        30.16F
MANITOWOC      NOT AVBL
APPLETON       CLOUDY    66  55  68 S10       30.16S
CLINTONVILLE   CLOUDY    64  59  82 CALM      30.16S
OSHKOSH        CLOUDY    69  59  70 S7        30.15S
$$

WIZ032>034-041-042-053>061-281700-
SOUTHWEST WISCONSIN

CITY           SKY/WX    TMP DP  RH WIND       PRES   REMARKS
LA CROSSE      PTSUNNY   73  61  65 S9        30.10F
SPARTA         PTSUNNY   71  59  64 S8        30.12S
VIROQUA        PTSUNNY   70  62  77 SE7       30.13S
BOSCOBEL       CLOUDY    73  60  63 SE6       30.11F
PRAIRIE DU CHI CLOUDY    69  60  71 E5        30.10F
PLATTEVILLE    FAIR      71  62  74 SE12      30.13S
$$

WIZ056-057-062-063-064-067-068-281700-
SOUTH CENTRAL WISCONSIN

CITY           SKY/WX    TMP DP  RH WIND       PRES   REMARKS
BARABOO/DELLS  MOSUNNY   71  57  61 S7        30.14S
LONE ROCK      NOT AVBL
WATERTOWN      SUNNY     70  59  67 SE3       30.15R
MADISON        MOSUNNY   73  58  59 S12       30.14S
MIDDLETON      FAIR      73  58  58 SE10      30.14S
MONROE         MOSUNNY   70  61  73 SE7       30.13F
JANESVILLE     SUNNY     73  57  56 SE8       30.13S
$$

WIZ051-052-058>065-066-070>072-281700-
SOUTHEAST WISCONSIN

CITY           SKY/WX    TMP DP  RH WIND       PRES   REMARKS
MILWAUKEE      MOSUNNY   70  55  59 SE12      30.16R
WAUKESHA       SUNNY     68  54  60 SE10      30.17R
MILWAUKEE/TIMM SUNNY     70  50  49 SE8       30.17R
RACINE         SUNNY     70  54  56 E13G18    30.17S
BURLINGTON     SUNNY     68  56  64 SE8       30.15S
KENOSHA        SUNNY     70  55  59 SE12      30.16R
FOND DU LAC    CLOUDY    69  57  65 MISG      30.16R
SHEBOYGAN      PTSUNNY   68  55  63 S10       30.17S
WEST BEND      SUNNY     68  52  56 SE12      30.16S
JUNEAU         SUNNY     69  58  68 SE10      30.16R
$$

LSZ147-162-281700-
LAKE SUPERIOR

STATION/POSITION TIME  TEMP    WIND        PRES    WAVE
                       AIR SEA DIR/SP/G            HT/PER
                 (UTC) (F)     (DEG/KT/KT) (MB)    (FT/S)
W MID LAKE BUOY  1450   57 56  160/  4/  4 1020.6R   1
DEVILS ISLAND    1500   61     220/  4/  6 1020.4S
PORT WING        1540   62     350/  4/  5 1020.3S
SAXON HARBOR     1500   64        CALM     1020.7S
$$

LMZ867-665-643>646-281700-
LAKE MICHIGAN

STATION/POSITION TIME  TEMP    WIND        PRES    WAVE
                       AIR SEA DIR/SP/G            HT/PER
                 (UTC) (F)     (DEG/KT/KT) (MB)    (FT/S)
N MID LAKE BUOY  1450   62 65  110/  8/  8 1022.2R   0
NORTHPORT PIER   1500   63     150/  7/ 11 1021.7S
SISTER BAY       1511   68     150/  9/ 13   N/A
ALGOMA LAKESHORE 1353          190/ 12/ 14   N/A
KEWAUNEE LAKESHO 1500   64     170/ 10/ 12 1020.8R
SHEBOYGAN LAKESH 1500   64 68  130/ 13/ 14 1021.6S
ATWATER BUOY     1500   67     130/ 12/ 16 1022.2R
MILWAUKEE LAKESH 1500   67     130/ 11/ 13   N/A
S MID LAKE BUOY  1450   65 69  110/ 12/ 14 1021.0F
KENOSHA   LAKESH 1500   68     130/ 12/ 13 1020.7S
$$

TC  - TEMPERATURE IN CELSIUS
VSB - VISIBILITY IN STATUTE MILES
WCI - WIND CHILL INDEX
HX  - HEAT INDEX




USA.gov is the U.S. government's official web portal to all federal, state and local government web resources and services.